FALCON 9 DEB (56363 NORAD) Tracking and Keplerian Element Data

This shows tracking and keplerian element data for the satellite.

Feedback or suggestion? Click here.




ElementValue
Catalog56363
NameFALCON 9 DEB
Epoch Orbit195
Epoch Day126.89963993
Epoch Year2023
RAAN126.4875
Inclination97.6721
Eccentricity0.0038017
Argument of Perigee212.3642
Mean Anonmoly147.5296
Mean Motion15.85400699
Decay Rate0.0024732
L11 56363U 23058AY 23126.89963993 .00247320 23347-4 98615-3 0 9994
L22 56363 97.6721 126.4875 0038017 212.3642 147.5296 15.85400699 1955



Live tracking and technical data element details for FALCON 9 DEB (NORAD 56363). FALCON 9 DEB can be tracked NOW for your location showing map with azimuth and elevation plus other details from your city location.







IsCatalogInMostPopularTable: catalog: 56363, numindb: 6
Update: records affected: 1



GetName: 56363 FALCON 9 DEB

Hit Count: updated at: Wed, 07 Jun 2023 08:32:32 GMT